Location: Bonn
(50.7330°N, 7.1000°E)
Time: 04:10:25
(UTC+02:00)

Cosmos 1933 Rocket - Visible Passes

Search period start: 24 July 2014 00:00
Search period end: 03 August 2014 00:00
Orbit: 608 x 633 km, 82.5° (Epoch: 23 July)

Date Brightness Start Highest point End Pass type
(mag) Time Alt. Az. Time Alt. Az. Time Alt. Az.
24 Jul 6.3 03:21:54 10° NNE 03:24:49 17° ENE 03:27:43 10° ESE visible
24 Jul 3.6 04:58:48 10° NNW 05:03:11 66° W 05:07:34 10° S visible
25 Jul 5.6 03:39:04 10° N 03:42:51 27° ENE 03:46:37 10° SE visible
26 Jul 4.7 03:56:31 10° N 04:00:47 45° ENE 04:05:02 10° SSE visible
27 Jul 6.5 02:38:28 10° NE 02:39:54 11° ENE 02:41:20 10° ENE visible
27 Jul 3.7 04:14:10 10° N 04:18:37 78° E 04:23:03 10° SSE visible
28 Jul 6.1 02:54:56 10° NNE 02:58:02 18° ENE 03:01:07 10° ESE visible
28 Jul 3.7 04:31:59 10° NNW 04:36:21 61° W 04:40:43 10° S visible
29 Jul 5.4 03:12:10 10° N 03:16:03 29° ENE 03:19:56 10° SE visible
29 Jul 4.3 04:49:58 10° NNW 04:54:00 35° W 04:58:01 10° SSW visible
30 Jul 4.4 03:29:39 10° N 03:33:58 48° ENE 03:38:17 10° SSE visible
30 Jul 5.0 05:08:14 10° NW 05:11:32 21° W 05:14:51 10° SW visible
31 Jul 6.3 02:11:18 10° NE 02:13:08 12° ENE 02:14:58 10° E visible
31 Jul 3.6 03:47:20 10° N 03:51:47 84° E 03:55:37 14° SSE visible
01 Aug 5.9 02:28:00 10° NNE 02:31:15 20° ENE 02:34:30 10° ESE visible
01 Aug 3.7 04:05:10 10° NNW 04:09:31 56° W 04:12:43 18° SSW visible
02 Aug 5.2 02:45:16 10° N 02:49:15 31° ENE 02:52:44 13° SE visible
02 Aug 4.5 04:23:11 10° NNW 04:27:08 32° W 04:29:53 17° SW visible
